Location: Malvern Link
(52.1333°N, 2.3000°W)
Time: 03:23:38
(UTC+00:00)

Landsat 7 - Pass Details

Date: 18 September 2020
Orbit: 701 x 703 km, 98.1° (Epoch: 22 October)

Event Time Altitude Azimuth Distance (km) Brightness Sun altitude
Exits shadow 21:04:38 80° 159° (SSE) 722 3.6 -24.7°
Maximum altitude 21:04:55 89° 83° (E) 712 3.7 -24.7°
Drops below altitude 10° 21:09:43 10° 346° (NNW) 2,184 7.1 -25.3°
Sets 21:11:59 0° 346° (NNW) 3,107 8.0 -25.5°
